Location: Slave Lake
(55.2830°N, 114.7830°W)
Time: 06:01:29
(UTC-07:00)

Amateur Radio Satellites - All Passes

Search period start: 17 January 2017 05:31
Search period end: 18 January 2017 05:31
Location: Slave Lake, 55.2830°N, 114.7830°W

Satellite Date Start Highest point End Downlink Frequencies (MHz)
Time Altitude Azimuth
ISS 17 Jan 05:33:03 05:35:38 22° 206° (SSW) 05:38:13 145.825
CUTE-I 17 Jan 05:33:26 05:36:04 14° 83° (E) 05:38:41 437.470
Gurwin Techsat 1B 17 Jan 05:40:01 05:41:59 12° 319° (NW) 05:43:58 435.225
GOMX 1 17 Jan 05:42:34 05:46:37 28° 92° (E) 05:50:27 467.674
NOAA 18 17 Jan 05:50:16 05:51:18 10° 80° (E) 05:52:18 137.9125
AIST 2 17 Jan 05:51:09 05:54:55 31° 237° (WSW) 05:58:40 435.215
CUSAT 1 17 Jan 05:51:54 05:56:57 36° 303° (WNW) 06:03:15 437.405
HORYU 2 17 Jan 05:55:33 05:59:44 39° 98° (E) 06:03:54 437.375
DANDE 17 Jan 06:04:42 06:08:39 57° 291° (WNW) 06:14:01 436.750
STARS 17 Jan 06:08:45 06:10:52 13° 274° (W) 06:13:01 437.465
CUBESAT XI-V 17 Jan 06:09:02 06:11:54 16° 275° (W) 06:14:48 437.345
Cubesat XI-IV 17 Jan 06:14:11 06:18:40 27° 92° (E) 06:23:08 437.490
STRAND 1 17 Jan 06:20:06 06:25:04 54° 66° (ENE) 06:30:03 437.568
ITAMSAT 1 17 Jan 06:30:08 06:33:07 16° 314° (NW) 06:36:07 435.822/435.867
O/OREOS (USA 219) 17 Jan 06:34:44 06:36:25 12° 97° (E) 06:38:05 437.305
NOAA 15 17 Jan 06:36:33 06:41:34 39° 97° (E) 06:46:32 137.62
HO-68 17 Jan 06:39:57 06:43:46 15° 80° (E) 06:47:33 435.675
DOVE 4 17 Jan 06:40:47 06:44:52 38° 96° (E) 06:48:47 437.250
Cosmos 2499 17 Jan 06:46:45 06:53:59 53° 69° (ENE) 07:00:51 435.465 / 435.565
AO-7 17 Jan 06:49:23 06:56:52 38° 314° (NW) 07:04:18 29.400- 29.500
BRITE-PL 17 Jan 06:57:14 07:02:07 40° 298° (WNW) 07:06:39 437.365/2234.400
CINEMA 3 17 Jan 07:00:03 07:02:52 17° 89° (E) 07:05:42 145.822/145.860
LilacSat-2 17 Jan 07:03:24 07:07:16 73° 103° (ESE) 07:11:07 437.200
PCSat 17 Jan 07:06:14 07:10:39 24° 5° (N) 07:15:03 145.827
CUTE-I 17 Jan 07:11:49 07:17:09 68° 103° (ESE) 07:22:28 437.470
GONETS M04 17 Jan 07:16:06 07:24:55 67° 72° (ENE) 07:33:43
RS-15 17 Jan 07:16:34 07:28:57 66° 26° (NNE) 07:41:08 29.354- 29.394
GOMX 1 17 Jan 07:20:26 07:24:59 47° 294° (WNW) 07:29:13 467.674
NOAA 18 17 Jan 07:27:53 07:33:16 53° 102° (ESE) 07:38:35 137.9125
Cosmos 2491 17 Jan 07:29:13 07:32:55 13° 336° (NNW) 07:36:38 435.465 / 435.565
HORYU 2 17 Jan 07:32:14 07:36:15 35° 298° (WNW) 07:40:19 437.375
CUSAT 1 17 Jan 07:38:34 07:41:22 13° 330° (NNW) 07:44:24 437.405
TIGRISAT 17 Jan 07:45:10 07:46:06 11° 47° (NE) 07:47:02 435.000
CUTE 1.7 + AOD 2 17 Jan 07:46:50 07:50:36 29° 93° (E) 07:54:22 437.475
DANDE 17 Jan 07:50:43 07:53:05 14° 320° (NW) 07:55:47 436.750
Cubesat XI-IV 17 Jan 07:53:54 07:59:12 65° 292° (WNW) 08:04:28 437.490
ANTELSAT 17 Jan 07:58:00 08:00:10 14° 51° (NE) 08:02:21 437.575/2403.000
JAS-2 17 Jan 07:58:41 08:00:59 13° 34° (NE) 08:03:23 435.910
STRAND 1 17 Jan 08:00:04 08:04:32 30° 266° (W) 08:09:02 437.568
O/OREOS (USA 219) 17 Jan 08:10:32 08:14:59 70° 118° (ESE) 08:19:27 437.305
PRISM 17 Jan 08:10:44 08:14:38 39° 65° (ENE) 08:18:33 437.425
CANX-2 17 Jan 08:15:02 08:19:18 57° 101° (E) 08:23:33 2200.000
NOAA 15 17 Jan 08:16:23 08:21:27 45° 297° (WNW) 08:26:28 137.62
DOVE 4 17 Jan 08:18:40 08:22:33 32° 298° (WNW) 08:26:17 437.250
CUBEBUG 2 17 Jan 08:19:04 08:22:43 27° 94° (E) 08:26:26 437.445
HO-68 17 Jan 08:25:59 08:33:07 59° 102° (ESE) 08:40:12 435.675
Oscar 11 17 Jan 08:30:22 08:32:49 15° 86° (E) 08:35:15 145.826/435.025
SEEDS 17 Jan 08:33:55 08:38:07 53° 100° (E) 08:42:18 437.485
CINEMA 3 17 Jan 08:36:22 08:40:31 69° 288° (WNW) 08:44:40 145.822/145.860
BRITE-PL 17 Jan 08:37:57 08:39:13 11° 320° (NW) 08:40:29 437.365/2234.400
LilacSat-2 17 Jan 08:38:34 08:41:08 17° 303° (WNW) 08:43:41 437.200
Cosmos 2499 17 Jan 08:40:14 08:46:59 42° 273° (W) 08:53:29 435.465 / 435.565
AO-7 17 Jan 08:42:17 08:47:29 18° 340° (NNW) 08:52:41 29.400- 29.500
COMPASS 1 17 Jan 08:46:27 08:50:34 49° 99° (E) 08:54:40 437.405
PCSat 17 Jan 08:50:18 08:55:25 39° 30° (NNE) 09:00:31 145.827
CUTE-I 17 Jan 08:52:23 08:56:51 28° 304° (NW) 09:01:20 437.470
SO-50 17 Jan 08:52:33 08:55:47 19° 115° (ESE) 08:59:00 436.795
UWE-3 17 Jan 08:55:04 08:59:05 38° 97° (E) 09:03:11 435.000/436.395/437.385
GOMX 1 17 Jan 09:00:39 09:01:57 11° 316° (NW) 09:03:14 467.674
FUNcube-1 17 Jan 09:01:19 09:05:02 28° 94° (E) 09:08:49 145.935
AAUSAT CUBESAT 2 17 Jan 09:01:31 09:05:39 54° 100° (E) 09:09:46 437.432
UNISAT 6 17 Jan 09:03:24 09:07:25 41° 65° (ENE) 09:11:27 437.425
NOAA 18 17 Jan 09:08:51 09:13:47 36° 302° (WNW) 09:18:42 137.9125
GONETS M04 17 Jan 09:13:25 09:21:22 40° 276° (W) 09:29:19
DELFI C3 17 Jan 09:16:40 09:18:52 14° 87° (E) 09:21:03 145.870
TIGRISAT 17 Jan 09:17:46 09:21:53 51° 68° (ENE) 09:26:02 435.000
ZACube-1 17 Jan 09:22:03 09:26:11 44° 98° (E) 09:30:23 437.345
CUTE 1.7 + AOD 2 17 Jan 09:22:31 09:26:37 44° 293° (WNW) 09:30:42 437.475
RS-15 17 Jan 09:29:43 09:41:58 69° 235° (SW) 09:53:51 29.354- 29.394
ANTELSAT 17 Jan 09:31:56 09:36:11 71° 71° (ENE) 09:40:27 437.575/2403.000
Cosmos 2491 17 Jan 09:33:37 09:35:17 11° 12° (NNE) 09:36:56 435.465 / 435.565
Cubesat XI-IV 17 Jan 09:35:04 09:38:24 17° 313° (NW) 09:41:43 437.490
JAS-2 17 Jan 09:39:25 09:44:28 40° 59° (ENE) 09:50:03 435.910
QB50P1 17 Jan 09:41:10 09:43:48 16° 54° (NE) 09:46:25 145.935-145.965
POLYITAN 1 17 Jan 09:44:01 09:46:45 17° 54° (NE) 09:49:29 437.675
QB50P2 17 Jan 09:44:56 09:47:49 18° 55° (NE) 09:50:42 145.880/145.840
PRISM 17 Jan 09:46:18 09:50:01 31° 264° (W) 09:53:46 437.425
O/OREOS (USA 219) 17 Jan 09:51:02 09:54:50 26° 320° (NW) 09:58:39 437.305
CANX-2 17 Jan 09:51:24 09:54:53 24° 301° (WNW) 09:58:22 2200.000
CUBEBUG 2 17 Jan 09:55:30 09:59:33 45° 293° (WNW) 10:03:40 437.445
NOAA 15 17 Jan 09:57:50 10:00:02 13° 319° (NW) 10:02:15 137.62
HUMSAT D 17 Jan 10:05:12 10:08:43 25° 92° (E) 10:12:15 437.325/437.525
Oscar 11 17 Jan 10:05:13 10:09:37 89° 126° (SE) 10:14:00 145.826/435.025
POPSAT HIP 1 17 Jan 10:06:44 10:10:08 24° 59° (ENE) 10:13:32 437.405
SEEDS 17 Jan 10:10:04 10:13:35 25° 300° (WNW) 10:17:04 437.485
HO-68 17 Jan 10:14:01 10:20:43 44° 305° (NW) 10:27:24 435.675
CINEMA 3 17 Jan 10:15:05 10:16:57 13° 309° (NW) 10:18:49 145.822/145.860
DUCHIFAT 1 17 Jan 10:21:51 10:25:26 28° 61° (ENE) 10:29:02 145.980
COMPASS 1 17 Jan 10:22:23 10:25:56 26° 299° (WNW) 10:29:27 437.405
NANOSAT C BR1 17 Jan 10:25:18 10:29:02 32° 63° (ENE) 10:32:46 145.865
SO-50 17 Jan 10:30:58 10:35:40 82° 136° (SE) 10:40:19 436.795
UWE-3 17 Jan 10:31:41 10:35:32 33° 296° (WNW) 10:39:26 435.000/436.395/437.385
AO-7 17 Jan 10:32:50 10:37:14 16° 7° (N) 10:41:38 29.400- 29.500
PCSat 17 Jan 10:33:48 10:39:13 70° 233° (SW) 10:44:37 145.827
FUNcube-1 17 Jan 10:37:21 10:41:28 46° 293° (WNW) 10:45:39 145.935
AAUSAT CUBESAT 2 17 Jan 10:37:28 10:40:53 24° 300° (WNW) 10:44:17 437.432
UNISAT 6 17 Jan 10:40:31 10:44:16 30° 265° (W) 10:48:03 437.425
Oscar 19 17 Jan 10:45:11 10:47:40 14° 44° (NE) 10:50:11 437.125/150
DELFI C3 17 Jan 10:50:12 10:54:15 83° 286° (WNW) 10:58:15 145.870
NOAA 18 17 Jan 10:51:46 10:53:02 11° 324° (NW) 10:54:19 137.9125
TIGRISAT 17 Jan 10:55:24 10:58:52 24° 268° (W) 11:02:22 435.000
ZACube-1 17 Jan 10:58:37 11:02:22 30° 298° (WNW) 11:06:10 437.345
BY70-1 17 Jan 11:00:30 11:03:16 22° 93° (E) 11:05:57 436.1900
ANTELSAT 17 Jan 11:10:30 11:13:24 18° 271° (W) 11:16:19 437.575/2403.000
BUGSAT 1 17 Jan 11:10:52 11:14:29 32° 64° (ENE) 11:18:07 437.445
CUSAT 1 17 Jan 11:10:55 11:13:07 11° 26° (NNE) 11:15:22 437.405
QB50P1 17 Jan 11:14:48 11:19:00 89° 74° (ENE) 11:23:14 145.935-145.965
POLYITAN 1 17 Jan 11:17:48 11:22:01 86° 258° (WSW) 11:26:14 437.675
QB50P2 17 Jan 11:18:55 11:23:08 80° 253° (WSW) 11:27:23 145.880/145.840
CUBEBUG 1 17 Jan 11:22:27 11:25:00 15° 87° (E) 11:27:32 437.445
JAS-2 17 Jan 11:24:26 11:29:35 46° 263° (W) 11:35:17 435.910
AISAT 17 Jan 11:30:02 11:31:54 12° 85° (E) 11:33:45 437.250
Cosmos 2491 17 Jan 11:30:03 11:36:41 23° 45° (NE) 11:43:19 435.465 / 435.565
O/OREOS (USA 219) 17 Jan 11:34:27 11:35:50 11° 344° (NNW) 11:37:13 437.305
ESTCUBE 1 17 Jan 11:35:41 11:39:42 30° 94° (E) 11:43:42 437.505/2401.250
HUMSAT D 17 Jan 11:40:27 11:44:35 51° 292° (WNW) 11:48:43 437.325/437.525
POPSAT HIP 1 17 Jan 11:41:32 11:45:39 54° 259° (W) 11:49:48 437.405
Oscar 11 17 Jan 11:42:20 11:45:12 17° 306° (NW) 11:48:03 145.826/435.025
RS-15 17 Jan 11:43:10 11:52:11 25° 261° (W) 12:01:02 29.354- 29.394
DUCHIFAT 1 17 Jan 11:56:59 12:00:59 44° 261° (W) 12:05:01 145.980
NANOSAT C BR1 17 Jan 12:00:47 12:04:42 38° 262° (W) 12:08:39 145.865
VELOX 1 17 Jan 12:02:29 12:05:58 22° 91° (E) 12:09:25 145.980
HO-68 17 Jan 12:02:35 12:06:48 17° 329° (NNW) 12:11:01 435.675
Gurwin Techsat 1B 17 Jan 12:07:59 12:12:26 28° 56° (NE) 12:16:54 435.225
SO-50 17 Jan 12:12:16 12:16:35 35° 338° (NNW) 12:20:49 436.795
PCSat 17 Jan 12:18:29 12:21:43 16° 254° (WSW) 12:24:57 145.827
AO-7 17 Jan 12:20:51 12:27:19 26° 34° (NE) 12:33:48 29.400- 29.500
Oscar 19 17 Jan 12:20:55 12:25:56 51° 65° (ENE) 12:31:00 437.125/150
DELFI C3 17 Jan 12:26:14 12:28:27 14° 306° (NW) 12:30:39 145.870
BY70-1 17 Jan 12:30:32 12:33:50 40° 292° (WNW) 12:37:02 436.1900
50 SAT 17 Jan 12:35:08 12:38:22 30° 96° (E) 12:41:34 437.505
DX 1 17 Jan 12:45:59 12:49:47 28° 94° (E) 12:53:33 434.975-435.025
BUGSAT 1 17 Jan 12:46:06 12:49:52 35° 263° (W) 12:53:37 437.445
CUSAT 1 17 Jan 12:51:35 12:57:56 27° 51° (NE) 13:04:31 437.405
UKube-1 17 Jan 12:52:10 12:55:46 25° 93° (E) 12:59:20 .
QB50P1 17 Jan 12:53:10 12:55:24 14° 273° (W) 12:57:40 145.935-145.965
POLYITAN 1 17 Jan 12:56:29 12:58:30 13° 274° (W) 13:00:31 437.675
SPROUT 17 Jan 12:56:49 13:00:59 50° 100° (E) 13:05:08 437.525
CUBEBUG 1 17 Jan 12:57:32 13:01:56 86° 280° (W) 13:06:16 437.445
QB50P2 17 Jan 12:57:56 12:59:40 12° 275° (W) 13:01:25 145.880/145.840
ITAMSAT 1 17 Jan 12:57:59 13:01:41 20° 50° (NE) 13:05:24 435.822/435.867
TISAT 1 17 Jan 13:03:00 13:04:42 12° 85° (E) 13:06:23 437.305
AISAT 17 Jan 13:04:43 13:09:10 77° 105° (ESE) 13:13:33 437.250
DANDE 17 Jan 13:07:33 13:11:43 17° 45° (NE) 13:16:19 436.750
ESTCUBE 1 17 Jan 13:12:19 13:16:41 46° 294° (WNW) 13:21:01 437.505/2401.250
O/OREOS (USA 219) 17 Jan 13:16:50 13:17:24 10° 11° (N) 13:17:59 437.305
HUMSAT D 17 Jan 13:18:23 13:19:18 11° 312° (NW) 13:20:13 437.325/437.525
Cosmos 2504 17 Jan 13:23:26 13:25:59 12° 64° (ENE) 13:28:30 435.465 / 435.565
Cosmos 2491 17 Jan 13:26:49 13:35:34 66° 72° (ENE) 13:44:19 435.465 / 435.565
AIST 1 17 Jan 13:34:55 13:36:58 13° 80° (E) 13:39:02
VELOX 1 17 Jan 13:38:26 13:42:48 59° 291° (WNW) 13:47:07 145.980
YUBILEINY 17 Jan 13:45:07 13:52:16 29° 77° (ENE) 13:59:26 435.215
Gurwin Techsat 1B 17 Jan 13:46:45 13:52:02 68° 257° (WSW) 13:57:23 435.225
SO-50 17 Jan 13:54:15 13:58:09 26° 2° (N) 14:01:59 436.795
Oscar 19 17 Jan 14:00:48 14:05:29 33° 265° (W) 14:10:13 437.125/150
50 SAT 17 Jan 14:08:24 14:11:35 30° 296° (WNW) 14:14:44 437.505
AO-7 17 Jan 14:10:31 14:18:44 63° 59° (ENE) 14:26:59 29.400- 29.500
DX 1 17 Jan 14:21:59 14:26:10 45° 295° (WNW) 14:30:18 434.975-435.025
UKube-1 17 Jan 14:27:51 14:32:04 51° 293° (WNW) 14:36:15 .
SPROUT 17 Jan 14:33:10 14:36:42 26° 300° (WNW) 14:40:15 437.525
CUSAT 1 17 Jan 14:33:18 14:41:05 77° 74° (ENE) 14:49:01 437.405
CUBEBUG 1 17 Jan 14:34:51 14:37:37 17° 307° (NW) 14:40:22 437.445
ITAMSAT 1 17 Jan 14:35:19 14:40:30 84° 72° (ENE) 14:45:43 435.822/435.867
AO-85 17 Jan 14:36:31 14:39:01 15° 114° (ESE) 14:41:25 145.980
TISAT 1 17 Jan 14:36:52 14:41:03 80° 105° (ESE) 14:45:14 437.305
ITUPSAT 1 17 Jan 14:40:03 14:43:58 24° 92° (E) 14:47:52 437.325
AISAT 17 Jan 14:41:57 14:45:10 20° 305° (NW) 14:48:22 437.250
DANDE 17 Jan 14:49:22 14:56:02 48° 66° (ENE) 15:03:51 436.750
ESTCUBE 1 17 Jan 14:51:27 14:52:28 11° 315° (NW) 14:53:30 437.505/2401.250
O/OREOS (USA 219) 17 Jan 14:55:06 14:58:35 21° 36° (NE) 15:02:03 437.305
BRITE-PL 17 Jan 14:58:51 15:03:16 24° 54° (NE) 15:07:35 437.365/2234.400
Cosmos 2504 17 Jan 15:09:18 15:17:19 45° 88° (E) 15:24:53 435.465 / 435.565
AIST 1 17 Jan 15:09:29 15:13:52 85° 104° (ESE) 15:18:15
VELOX 1 17 Jan 15:16:28 15:18:26 13° 312° (NW) 15:20:22 145.980
BEESAT 17 Jan 15:16:38 15:21:16 46° 99° (E) 15:25:53 436.000
SWISSCUBE 17 Jan 15:17:53 15:22:35 52° 101° (E) 15:27:17 437.505
GOMX 1 17 Jan 15:21:15 15:24:34 17° 51° (NE) 15:27:48 467.674
Cosmos 2491 17 Jan 15:24:08 15:32:04 40° 276° (W) 15:40:00 435.465 / 435.565
CUTE-I 17 Jan 15:25:40 15:27:45 12° 41° (NE) 15:29:50 437.470
HORYU 2 17 Jan 15:25:52 15:28:44 17° 52° (NE) 15:31:38 437.375
Gurwin Techsat 1B 17 Jan 15:30:25 15:33:02 14° 277° (W) 15:35:39 435.225
HO-68 17 Jan 15:33:42 15:36:29 13° 21° (NNE) 15:39:15 435.675
SO-50 17 Jan 15:35:18 15:39:38 40° 26° (NNE) 15:43:55 436.795
YUBILEINY 17 Jan 15:39:13 15:48:05 88° 282° (WNW) 15:57:01 435.215
MOZHAYETS 4 17 Jan 15:41:44 15:45:52 30° 94° (E) 15:49:58
NOAA 18 17 Jan 15:45:14 15:47:25 12° 38° (NE) 15:49:35 137.9125
DX 1 17 Jan 16:00:50 16:01:22 10° 315° (NW) 16:01:53 434.975-435.025
AO-7 17 Jan 16:04:01 16:11:55 44° 262° (W) 16:19:53 29.400- 29.500
Cubesat XI-IV 17 Jan 16:05:27 16:09:16 20° 50° (NE) 16:13:05 437.490
UKube-1 17 Jan 16:05:56 16:07:11 11° 314° (NW) 16:08:27 .
TISAT 1 17 Jan 16:13:22 16:16:13 18° 305° (NW) 16:19:03 437.305
STARS 17 Jan 16:13:25 16:14:47 11° 84° (E) 16:16:08 437.465
AO-85 17 Jan 16:14:17 16:18:49 70° 134° (SE) 16:23:02 145.980
CUSAT 1 17 Jan 16:15:44 16:22:33 35° 274° (W) 16:29:27 437.405
DOVE 4 17 Jan 16:16:55 16:20:18 19° 55° (NE) 16:23:35 437.250
ITAMSAT 1 17 Jan 16:16:56 16:20:40 20° 272° (W) 16:24:24 435.822/435.867
ITUPSAT 1 17 Jan 16:17:26 16:22:12 62° 292° (WNW) 16:26:57 437.325
AUBIESAT-1 17 Jan 16:18:19 16:20:23 15° 96° (E) 16:22:24 437.475
CUBESAT XI-V 17 Jan 16:19:23 16:22:07 15° 85° (E) 16:24:51 437.345
LilacSat-2 17 Jan 16:19:41 16:21:58 16° 56° (NE) 16:24:17 437.200
NOAA 15 17 Jan 16:25:27 16:29:52 28° 55° (NE) 16:34:20 137.62
DANDE 17 Jan 16:32:07 16:38:57 55° 264° (W) 16:46:53 436.750
O/OREOS (USA 219) 17 Jan 16:34:08 16:38:40 84° 58° (ENE) 16:43:11 437.305
BRITE-PL 17 Jan 16:35:24 16:41:08 90° 296° (WNW) 16:46:46 437.365/2234.400
KKS-1 17 Jan 16:45:22 16:49:33 39° 98° (E) 16:53:41 437.445
AIST 1 17 Jan 16:49:15 16:52:06 17° 302° (WNW) 16:54:58
BEESAT 17 Jan 16:54:39 16:58:57 33° 300° (WNW) 17:03:14 436.000
SWISSCUBE 17 Jan 16:56:01 17:00:12 31° 301° (WNW) 17:04:23 437.505
GOMX 1 17 Jan 16:56:33 17:01:54 69° 71° (ENE) 17:07:01 467.674
HORYU 2 17 Jan 17:00:17 17:04:42 87° 73° (ENE) 17:09:09 437.375
CUTE-I 17 Jan 17:01:36 17:06:36 44° 62° (ENE) 17:11:38 437.470
Cosmos 2504 17 Jan 17:02:09 17:10:38 58° 290° (WNW) 17:18:35 435.465 / 435.565
M-CUBED/EXP-1 PRIME 17 Jan 17:12:12 17:15:44 63° 108° (ESE) 17:19:04 437.505
CUTE 1.7 + AOD 2 17 Jan 17:14:29 17:15:17 10° 48° (NE) 17:16:06 437.475
SO-50 17 Jan 17:15:52 17:20:23 63° 228° (SW) 17:24:48 436.795
HO-68 17 Jan 17:16:05 17:22:02 29° 46° (NE) 17:28:00 435.675
MOZHAYETS 4 17 Jan 17:18:45 17:23:13 47° 294° (WNW) 17:27:39
NOAA 18 17 Jan 17:21:40 17:26:48 42° 60° (ENE) 17:31:56 137.9125
YUBILEINY 17 Jan 17:38:43 17:46:16 30° 307° (NW) 17:53:52 435.215
CANX-2 17 Jan 17:40:32 17:43:25 18° 55° (NE) 17:46:18 2200.000
Cubesat XI-IV 17 Jan 17:43:20 17:48:40 82° 70° (ENE) 17:54:01 437.490
BEESAT 3 17 Jan 17:47:15 17:50:35 27° 122° (ESE) 17:53:58 437.485
STARS 17 Jan 17:47:36 17:51:59 70° 104° (ESE) 17:56:20 437.465
CUBEBUG 2 17 Jan 17:51:37 17:52:18 10° 48° (NE) 17:52:59 437.445
AUBIESAT-1 17 Jan 17:51:46 17:55:16 61° 296° (WNW) 17:58:35 437.475
LilacSat-2 17 Jan 17:52:00 17:55:46 80° 256° (WSW) 17:59:36 437.200
DOVE 4 17 Jan 17:52:29 17:57:30 89° 66° (ENE) 18:02:13 437.250
AO-85 17 Jan 17:55:29 17:59:31 35° 334° (NNW) 18:03:21 145.980
CUBESAT XI-V 17 Jan 17:55:29 18:00:15 85° 104° (ESE) 18:04:57 437.345
ITUPSAT 1 17 Jan 17:56:35 17:59:12 15° 312° (NW) 18:01:49 437.325
SEEDS 17 Jan 17:58:38 18:01:20 17° 54° (NE) 18:04:03 437.485
NOAA 15 17 Jan 18:04:00 18:09:17 70° 256° (WSW) 18:14:38 137.62
AO-7 17 Jan 18:05:28 18:07:12 11° 286° (WNW) 18:08:57 29.400- 29.500
CINEMA 3 17 Jan 18:08:09 18:12:12 38° 66° (ENE) 18:16:10 145.822/145.860
COMPASS 1 17 Jan 18:10:29 18:12:58 15° 53° (NE) 18:15:27 437.405
O/OREOS (USA 219) 17 Jan 18:14:34 18:17:30 17° 259° (WSW) 18:20:25 437.305
BRITE-PL 17 Jan 18:16:07 18:20:17 21° 274° (W) 18:24:27 437.365/2234.400
DANDE 17 Jan 18:16:36 18:20:32 16° 284° (WNW) 18:24:45 436.750
KKS-1 17 Jan 18:22:04 18:26:06 35° 298° (WNW) 18:30:07 437.445
BEESAT 2 17 Jan 18:24:51 18:28:18 29° 122° (ESE) 18:31:48 435.950
AAUSAT CUBESAT 2 17 Jan 18:24:55 18:27:32 16° 54° (NE) 18:30:09 437.432
UWE-3 17 Jan 18:25:14 18:27:19 14° 52° (NE) 18:29:23 435.000/436.395/437.385
STRAND 1 17 Jan 18:25:52 18:26:42 10° 80° (E) 18:27:32 437.568
FUNcube-1 17 Jan 18:32:04 18:32:18 10° 47° (NE) 18:32:31 145.935
GONETS M04 17 Jan 18:35:02 18:39:43 16° 66° (ENE) 18:44:24
GOMX 1 17 Jan 18:36:00 18:40:24 25° 270° (W) 18:44:40 467.674
HORYU 2 17 Jan 18:39:16 18:41:54 15° 273° (W) 18:44:33 437.375
CUTE-I 17 Jan 18:41:46 18:46:44 40° 263° (W) 18:51:45 437.470
CUTE 1.7 + AOD 2 17 Jan 18:46:04 18:50:11 50° 68° (ENE) 18:54:21 437.475
M-CUBED/EXP-1 PRIME 17 Jan 18:47:22 18:49:52 18° 311° (NW) 18:52:17 437.505
ZACube-1 17 Jan 18:50:51 18:53:12 15° 53° (NE) 18:55:34 437.345
SO-50 17 Jan 18:57:57 18:59:59 13° 249° (WSW) 19:02:01 436.795
MOZHAYETS 4 17 Jan 18:58:05 18:59:21 11° 315° (NW) 19:00:38
Cosmos 2504 17 Jan 19:00:13 19:06:00 20° 316° (NW) 19:11:34 435.465 / 435.565
HO-68 17 Jan 19:01:48 19:09:01 87° 71° (ENE) 19:16:17 435.675
NOAA 18 17 Jan 19:02:14 19:07:29 45° 261° (W) 19:12:46 137.9125
CANX-2 17 Jan 19:14:29 19:18:45 84° 255° (WSW) 19:23:04 2200.000
CUBEBUG 2 17 Jan 19:24:01 19:28:04 52° 69° (ENE) 19:32:07 437.445
BEESAT 3 17 Jan 19:24:04 19:27:58 60° 322° (NW) 19:31:56 437.485
STARS 17 Jan 19:24:38 19:27:56 21° 304° (NW) 19:31:14 437.465
Cubesat XI-IV 17 Jan 19:25:27 19:29:24 21° 272° (W) 19:33:23 437.490
AUBIESAT-1 17 Jan 19:27:59 19:28:59 11° 318° (NW) 19:29:58 437.475
LilacSat-2 17 Jan 19:29:57 19:30:46 11° 276° (W) 19:31:35 437.200
Oscar 11 17 Jan 19:31:32 19:35:12 27° 60° (ENE) 19:38:53 145.826/435.025
Cosmos 2499 17 Jan 19:32:04 19:39:22 35° 84° (E) 19:46:13 435.465 / 435.565
SEEDS 17 Jan 19:32:13 19:36:28 90° 298° (WNW) 19:40:45 437.485
DOVE 4 17 Jan 19:32:35 19:35:48 17° 273° (W) 19:38:54 437.250
CUBESAT XI-V 17 Jan 19:33:41 19:37:06 20° 306° (NW) 19:40:29 437.345
AO-85 17 Jan 19:37:37 19:40:57 22° 358° (N) 19:44:09 145.980
YUBILEINY 17 Jan 19:43:33 19:47:01 13° 339° (NNW) 19:50:30 435.215
COMPASS 1 17 Jan 19:43:41 19:47:54 83° 74° (ENE) 19:52:09 437.405
CINEMA 3 17 Jan 19:45:26 19:49:27 33° 265° (W) 19:53:19 145.822/145.860
NOAA 15 17 Jan 19:47:22 19:50:05 14° 277° (W) 19:52:49 137.62
AAUSAT CUBESAT 2 17 Jan 19:58:14 20:02:26 89° 42° (NE) 20:06:40 437.432
UWE-3 17 Jan 19:58:57 20:03:05 74° 73° (ENE) 20:07:15 435.000/436.395/437.385
BEESAT 2 17 Jan 20:01:58 20:05:54 58° 323° (NW) 20:09:54 435.950
STRAND 1 17 Jan 20:01:59 20:07:04 55° 101° (E) 20:12:07 437.568
FUNcube-1 17 Jan 20:03:38 20:07:37 50° 68° (ENE) 20:11:41 145.935
DELFI C3 17 Jan 20:08:40 20:11:52 23° 60° (ENE) 20:15:05 145.870
CUTE 1.7 + AOD 2 17 Jan 20:22:45 20:26:17 25° 268° (W) 20:29:52 437.475
ZACube-1 17 Jan 20:24:44 20:28:52 82° 76° (ENE) 20:33:05 437.345
GONETS M04 17 Jan 20:26:07 20:34:32 57° 91° (E) 20:43:03
HO-68 17 Jan 20:51:46 20:57:39 26° 271° (W) 21:03:34 435.675
CANX-2 17 Jan 20:53:17 20:55:19 13° 275° (W) 20:57:23 2200.000
CUBEBUG 2 17 Jan 21:01:42 21:05:00 22° 269° (W) 21:08:19 437.445
BEESAT 3 17 Jan 21:03:00 21:06:17 24° 345° (NNW) 21:09:35 437.485
HUMSAT D 17 Jan 21:03:02 21:06:55 41° 66° (ENE) 21:10:51 437.325/437.525
Oscar 11 17 Jan 21:06:57 21:11:09 49° 261° (W) 21:15:23 145.826/435.025
ESTCUBE 1 17 Jan 21:07:59 21:10:18 14° 49° (NE) 21:12:37 437.505/2401.250
SEEDS 17 Jan 21:10:33 21:12:49 14° 275° (W) 21:15:05 437.485
AO-85 17 Jan 21:18:45 21:22:26 31° 23° (NNE) 21:25:59 145.980
PRISM 17 Jan 21:20:12 21:23:31 23° 92° (E) 21:26:48 437.425
COMPASS 1 17 Jan 21:21:33 21:24:03 15° 274° (W) 21:26:33 437.405
BY70-1 17 Jan 21:22:56 21:25:05 17° 58° (ENE) 21:27:20 436.1900
Cosmos 2499 17 Jan 21:23:45 21:32:05 70° 286° (WNW) 21:39:50 435.465 / 435.565
AIST 2 17 Jan 21:32:22 21:36:22 49° 128° (SE) 21:40:27 435.215
VELOX 1 17 Jan 21:33:54 21:34:59 11° 46° (NE) 21:36:04 145.980
AAUSAT CUBESAT 2 17 Jan 21:36:20 21:38:33 14° 274° (W) 21:40:46 437.432
UWE-3 17 Jan 21:37:26 21:40:05 16° 272° (W) 21:42:45 435.000/436.395/437.385
FUNcube-1 17 Jan 21:40:48 21:44:09 23° 268° (W) 21:47:32 145.935
BEESAT 2 17 Jan 21:41:06 21:44:25 24° 346° (NNW) 21:47:45 435.950
STRAND 1 17 Jan 21:41:32 21:46:03 32° 301° (WNW) 21:50:34 437.568
DELFI C3 17 Jan 21:42:29 21:46:25 53° 259° (W) 21:50:24 145.870
YUBILEINY 17 Jan 21:46:59 21:49:24 11° 14° (NNE) 21:51:49 435.215
ZACube-1 17 Jan 22:03:24 22:05:47 15° 274° (W) 22:08:11 437.345
DX 1 17 Jan 22:14:57 22:16:57 13° 49° (NE) 22:18:57 434.975-435.025
UKube-1 17 Jan 22:20:46 22:22:11 11° 47° (NE) 22:23:36 .
SPROUT 17 Jan 22:22:59 22:25:47 17° 54° (NE) 22:28:36 437.525
GONETS M04 17 Jan 22:23:19 22:31:40 48° 296° (WNW) 22:40:07
UNISAT 6 17 Jan 22:23:51 22:27:51 33° 96° (E) 22:31:53 437.425
JAS-2 17 Jan 22:24:05 22:29:24 23° 87° (E) 22:35:04 435.910
CUBEBUG 1 17 Jan 22:24:38 22:28:32 31° 62° (ENE) 22:32:26 437.445
AISAT 17 Jan 22:33:15 22:37:02 28° 60° (ENE) 22:40:50 437.250
TIGRISAT 17 Jan 22:38:05 22:42:13 41° 98° (E) 22:46:26 435.000
HUMSAT D 17 Jan 22:39:06 22:42:41 28° 266° (W) 22:46:19 437.325/437.525
ESTCUBE 1 17 Jan 22:41:48 22:46:18 64° 70° (ENE) 22:50:50 437.505/2401.250
BEESAT 3 17 Jan 22:41:53 22:45:02 22° 9° (N) 22:48:12 437.485
BY70-1 17 Jan 22:52:09 22:55:08 50° 259° (W) 22:58:23 436.1900
ANTELSAT 17 Jan 22:52:28 22:56:48 58° 102° (ESE) 23:01:12 437.575/2403.000
PRISM 17 Jan 22:55:03 22:59:07 52° 292° (WNW) 23:03:07 437.425
QB50P2 17 Jan 22:58:40 22:59:43 11° 84° (E) 23:00:47 145.880/145.840
AO-85 17 Jan 22:59:11 23:03:13 76° 224° (SW) 23:07:06 145.980
VELOX 1 17 Jan 23:06:12 23:10:29 47° 66° (ENE) 23:14:46 145.980
AIST 2 17 Jan 23:10:58 23:14:58 42° 330° (NNW) 23:19:01 435.215
50 SAT 17 Jan 23:16:24 23:19:46 40° 67° (ENE) 23:23:11 437.505
POPSAT HIP 1 17 Jan 23:19:45 23:22:18 16° 88° (E) 23:24:51 437.405
BEESAT 2 17 Jan 23:20:06 23:23:21 22° 10° (N) 23:26:36 435.950
Cosmos 2499 17 Jan 23:20:39 23:26:46 23° 311° (NW) 23:32:36 435.465 / 435.565
DUCHIFAT 1 17 Jan 23:34:03 23:37:00 18° 90° (E) 23:39:55 145.980
NANOSAT C BR1 17 Jan 23:37:49 23:41:03 21° 91° (E) 23:44:17 145.865
YUBILEINY 17 Jan 23:43:37 23:50:38 25° 47° (NE) 23:57:35 435.215
DX 1 17 Jan 23:48:01 23:52:20 61° 69° (ENE) 23:56:40 434.975-435.025
UKube-1 17 Jan 23:53:07 23:57:20 53° 67° (ENE) 00:01:34 .
SPROUT 17 Jan 23:56:55 00:01:11 86° 255° (WSW) 00:05:29 437.525
CUBEBUG 1 18 Jan 00:00:30 00:04:43 43° 261° (W) 00:08:57 437.445
UNISAT 6 18 Jan 00:00:34 00:04:38 39° 295° (WNW) 00:08:46 437.425
TISAT 1 18 Jan 00:00:35 00:03:59 25° 59° (ENE) 00:07:23 437.305
RS-15 18 Jan 00:01:46 00:12:22 39° 109° (ESE) 00:23:15 29.354- 29.394
JAS-2 18 Jan 00:08:29 00:15:17 83° 107° (ESE) 00:22:50 435.910
AISAT 18 Jan 00:08:59 00:13:19 50° 260° (W) 00:17:40 437.250
TIGRISAT 18 Jan 00:14:59 00:18:51 32° 297° (WNW) 00:22:48 435.000
ITUPSAT 1 18 Jan 00:18:42 00:21:14 14° 47° (NE) 00:23:46 437.325
BEESAT 3 18 Jan 00:19:40 00:23:31 43° 32° (NNE) 00:27:22 437.485
ESTCUBE 1 18 Jan 00:20:00 00:23:31 22° 270° (W) 00:27:04 437.505/2401.250
BUGSAT 1 18 Jan 00:20:34 00:23:33 20° 91° (E) 00:26:32 437.445
GONETS M04 18 Jan 00:25:50 00:31:19 18° 324° (NW) 00:36:50
QB50P1 18 Jan 00:27:46 00:31:57 60° 102° (ESE) 00:36:08 145.935-145.965
ANTELSAT 18 Jan 00:29:43 00:33:15 25° 301° (WNW) 00:36:50 437.575/2403.000
POLYITAN 1 18 Jan 00:30:58 00:35:11 65° 102° (ESE) 00:39:23 437.675
QB50P2 18 Jan 00:32:06 00:36:20 70° 103° (ESE) 00:40:33 145.880/145.840
PRISM 18 Jan 00:32:32 00:33:32 11° 313° (NW) 00:34:31 437.425
AO-85 18 Jan 00:40:58 00:42:54 13° 246° (WSW) 00:44:49 145.980
VELOX 1 18 Jan 00:43:17 00:47:08 28° 266° (W) 00:51:00 145.980
Cosmos 2491 18 Jan 00:46:00 00:50:34 16° 66° (ENE) 00:55:08 435.465 / 435.565
50 SAT 18 Jan 00:50:15 00:53:09 23° 267° (W) 00:56:05 437.505
AIST 2 18 Jan 00:50:59 00:54:23 23° 353° (N) 00:57:49 435.215
Cosmos 2504 18 Jan 00:52:48 00:59:10 27° 53° (NE) 01:05:14 435.465 / 435.565
BEESAT 18 Jan 00:53:40 00:57:26 24° 55° (NE) 01:01:13 436.000
POPSAT HIP 1 18 Jan 00:54:25 00:58:39 81° 288° (WNW) 01:02:52 437.405
SWISSCUBE 18 Jan 00:54:48 00:58:42 26° 57° (ENE) 01:02:39 437.505
BEESAT 2 18 Jan 00:58:03 01:01:59 45° 33° (NNE) 01:05:54 435.950
M-CUBED/EXP-1 PRIME 18 Jan 00:59:48 01:00:28 10° 41° (NE) 01:01:09 437.505
AIST 1 18 Jan 01:08:54 01:13:05 47° 72° (ENE) 01:17:13
DUCHIFAT 1 18 Jan 01:08:57 01:13:08 68° 288° (WNW) 01:17:18 145.980
NANOSAT C BR1 18 Jan 01:13:00 01:17:08 58° 290° (WNW) 01:21:16 145.865
MOZHAYETS 4 18 Jan 01:16:07 01:18:31 14° 49° (NE) 01:20:55
PCSat 18 Jan 01:23:29 01:27:41 23° 111° (ESE) 01:31:55 145.827
DX 1 18 Jan 01:25:31 01:28:55 22° 269° (W) 01:32:19 434.975-435.025
ISS 18 Jan 01:28:32 01:31:24 29° 160° (SSE) 01:34:16 145.825
UKube-1 18 Jan 01:30:06 01:33:39 24° 267° (W) 01:37:13 .
TISAT 1 18 Jan 01:35:17 01:39:23 53° 259° (W) 01:43:30 437.305
SPROUT 18 Jan 01:35:41 01:37:48 13° 274° (W) 01:39:56 437.525
AUBIESAT-1 18 Jan 01:36:53 01:39:20 16° 47° (NE) 01:41:42 437.475
YUBILEINY 18 Jan 01:40:24 01:49:17 72° 74° (ENE) 01:58:05 435.215
ITUPSAT 1 18 Jan 01:53:30 01:58:12 61° 68° (ENE) 02:02:56 437.325
JAS-2 18 Jan 01:54:10 01:59:51 31° 306° (NW) 02:06:04 435.910
BUGSAT 1 18 Jan 01:55:19 01:59:18 58° 290° (WNW) 02:03:15 437.445
Gurwin Techsat 1B 18 Jan 01:55:38 02:00:15 29° 92° (E) 02:04:48 435.225
BEESAT 3 18 Jan 01:57:23 02:01:11 43° 233° (SW) 02:04:59 437.485
Oscar 19 18 Jan 02:04:02 02:09:08 52° 100° (E) 02:14:10 437.125/150
QB50P1 18 Jan 02:04:07 02:07:25 23° 302° (WNW) 02:10:42 145.935-145.965
AO-7 18 Jan 02:07:15 02:09:04 11° 74° (ENE) 02:10:53 29.400- 29.500
POLYITAN 1 18 Jan 02:07:25 02:10:38 21° 302° (WNW) 02:13:50 437.675
QB50P2 18 Jan 02:08:38 02:11:44 20° 303° (WNW) 02:14:50 145.880/145.840
RS-15 18 Jan 02:11:35 02:23:43 90° 314° (NW) 02:36:13 29.354- 29.394
KKS-1 18 Jan 02:15:42 02:18:35 17° 53° (NE) 02:21:30 437.445
M-CUBED/EXP-1 PRIME 18 Jan 02:30:04 02:34:10 43° 60° (ENE) 02:37:59 437.505
BEESAT 18 Jan 02:30:04 02:34:49 71° 256° (WSW) 02:39:37 436.000
AIST 2 18 Jan 02:30:22 02:34:00 27° 17° (NNE) 02:37:40 435.215
POPSAT HIP 1 18 Jan 02:31:23 02:33:48 15° 307° (NW) 02:36:15 437.405
SWISSCUBE 18 Jan 02:31:27 02:36:11 63° 257° (WSW) 02:40:57 437.505
BEESAT 2 18 Jan 02:35:58 02:39:47 40° 234° (SW) 02:43:34 435.950
Cosmos 2491 18 Jan 02:37:00 02:45:24 56° 91° (E) 02:53:51 435.465 / 435.565
ITAMSAT 1 18 Jan 02:41:34 02:45:00 17° 87° (E) 02:48:25 435.822/435.867
Cosmos 2504 18 Jan 02:46:03 02:53:47 90° 77° (ENE) 03:01:01 435.465 / 435.565
DUCHIFAT 1 18 Jan 02:46:07 02:48:05 13° 309° (NW) 02:50:03 145.980
AIST 1 18 Jan 02:46:57 02:50:27 25° 273° (W) 02:53:56
MOZHAYETS 4 18 Jan 02:50:20 02:54:52 64° 70° (ENE) 02:59:27
NANOSAT C BR1 18 Jan 02:50:33 02:52:03 12° 311° (NW) 02:53:33 145.865
ISS 18 Jan 03:04:22 03:07:30 44° 180° (S) 03:10:37 145.825
PCSat 18 Jan 03:05:04 03:10:30 87° 311° (NW) 03:16:00 145.827
AUBIESAT-1 18 Jan 03:09:01 03:13:16 77° 64° (ENE) 03:17:13 437.475
STARS 18 Jan 03:15:41 03:19:20 26° 59° (ENE) 03:22:59 437.465
CUBESAT XI-V 18 Jan 03:29:01 03:33:13 33° 62° (ENE) 03:37:26 437.345
ITUPSAT 1 18 Jan 03:32:33 03:36:26 24° 268° (W) 03:40:21 437.325
BUGSAT 1 18 Jan 03:32:43 03:33:52 11° 311° (NW) 03:35:02 437.445
Gurwin Techsat 1B 18 Jan 03:35:19 03:40:34 60° 293° (WNW) 03:45:47 435.225
YUBILEINY 18 Jan 03:37:46 03:45:33 37° 278° (W) 03:53:17 435.215
JAS-2 18 Jan 03:41:18 03:43:06 11° 329° (NNW) 03:44:57 435.910
CUSAT 1 18 Jan 03:42:48 03:47:53 44° 90° (E) 03:54:18 437.405
Oscar 19 18 Jan 03:43:40 03:48:19 34° 301° (WNW) 03:52:55 437.125/150
KKS-1 18 Jan 03:50:06 03:54:34 86° 73° (ENE) 03:59:03 437.445
AO-7 18 Jan 03:56:23 04:04:21 45° 98° (E) 04:12:15 29.400- 29.500
M-CUBED/EXP-1 PRIME 18 Jan 04:04:53 04:08:44 30° 257° (WSW) 04:12:23 437.505
DANDE 18 Jan 04:08:02 04:11:07 20° 80° (E) 04:14:51 436.750
AIST 2 18 Jan 04:08:52 04:13:08 70° 40° (NE) 04:17:23 435.215
BEESAT 18 Jan 04:11:28 04:13:31 13° 276° (W) 04:15:36 436.000
SWISSCUBE 18 Jan 04:13:33 04:14:58 11° 278° (W) 04:16:24 437.505
ITAMSAT 1 18 Jan 04:20:01 04:25:15 86° 107° (ESE) 04:30:29 435.822/435.867
RS-15 18 Jan 04:25:33 04:37:38 58° 347° (NNW) 04:49:51 29.354- 29.394
MOZHAYETS 4 18 Jan 04:28:55 04:32:28 22° 270° (W) 04:36:03
GONETS M04 18 Jan 04:30:03 04:35:19 17° 34° (NNE) 04:40:35
BRITE-PL 18 Jan 04:34:10 04:37:51 19° 85° (E) 04:41:18 437.365/2234.400
Cosmos 2491 18 Jan 04:34:11 04:42:32 48° 295° (WNW) 04:50:57 435.465 / 435.565
Cosmos 2504 18 Jan 04:40:23 04:46:08 24° 284° (WNW) 04:51:39 435.465 / 435.565
ISS 18 Jan 04:40:44 04:43:36 28° 200° (SSW) 04:46:27 145.825
AUBIESAT-1 18 Jan 04:45:19 04:48:03 17° 263° (W) 04:50:43 437.475
HORYU 2 18 Jan 04:46:40 04:47:08 10° 83° (E) 04:47:36 437.375
PCSat 18 Jan 04:49:41 04:54:35 33° 336° (NNW) 04:59:30 145.827
STARS 18 Jan 04:51:09 04:55:27 54° 258° (WSW) 04:59:47 437.465
GOMX 1 18 Jan 04:53:32 04:54:56 11° 80° (E) 04:56:19 467.674
CUBESAT XI-V 18 Jan 05:05:57 05:10:29 46° 262° (W) 05:15:04 437.345
Cosmos 2499 18 Jan 05:13:34 05:18:59 21° 48° (NE) 05:24:12 435.465 / 435.565
Gurwin Techsat 1B 18 Jan 05:16:28 05:19:35 16° 314° (NW) 05:22:41 435.225
